Location: Domaschin
(49.7142°N, 14.8772°E)
Time: 17:49:02
(UTC+00:00)

Daily predictions for brighter satellites

Satellite Brightness Start Highest point End
(mag) Time Altitude Azimuth Time Altitude Azimuth Time Altitude Azimuth
USA 267 4.2 19:46:28 10° ENE 19:52:42 49° N 19:58:57 10° WNW
Cosmos 2322 Rocket 2.3 19:48:08 10° S 19:53:43 61° ESE 19:59:21 10° NE
Genesis I 3.2 19:50:31 10° SW 19:54:22 88° SE 19:58:21 10° NE
Cosmos 1461 3.0 19:51:03 10° NW 19:55:21 70° NE 19:59:24 10° SE
USA 81 4.1 19:50:08 10° N 19:55:27 87° E 20:00:43 10° S
CARTOSAT-1 3.9 19:51:15 10° SSE 19:55:27 54° ENE 19:59:41 10° N
Resurs 01 Rocket 2.4 19:52:02 10° S 19:56:19 52° W 20:00:39 10° NNW
OBJECT-B 4.0 19:56:53 10° WSW 19:57:36 11° W 19:58:17 10° WNW
USA 245 4.2 19:53:54 10° SSE 19:58:45 82° ENE 20:04:37 10° NNW
Meteor 1-16 Rocket 4.3 19:55:49 10° N 20:01:20 67° ENE 20:06:39 10° SSE
Cosmos 1975 Rocket 3.2 19:59:38 10° S 20:03:54 57° E 20:08:13 10° NNE
Cosmos 1470 4.2 20:00:42 10° NNW 20:04:24 37° W 20:08:04 10° SSW
ATLAS CENTAUR R/B 2.4 20:03:18 10° NNW 20:07:23 43° NE 20:11:41 10° ESE
SPOT 5 3.3 20:02:45 10° SSE 20:07:45 55° ENE 20:12:32 10° N
Cosmos 1674 2.8 20:04:44 10° S 20:08:22 53° E 20:11:59 10° NNE
COSMOS 2428 4.2 20:06:51 10° SE 20:10:32 18° E 20:14:12 10° ENE
Cosmos 1980 Rocket 4.3 20:06:55 10° WSW 20:11:55 32° NW 20:16:56 10° NNE
Terra 2.4 20:10:36 10° SE 20:15:07 46° ENE 20:19:41 10° N
Cosmos 2237 4.2 20:09:38 10° SSW 20:15:15 64° ESE 20:20:54 10° NE
Cosmos 2278 Rocket 3.9 20:11:10 10° NNW 20:15:42 24° NE 20:20:12 10° E
Cosmos 1300 4.1 20:13:12 10° NNE 20:16:28 26° ENE 20:19:35 11° SE
Cosmos 1726 4.1 20:14:33 10° NNW 20:17:37 26° W 20:20:39 10° SSW
Lacrosse 5 3.3 20:15:56 10° WNW 20:20:08 27° SW 20:24:19 10° S
Cosmos 405 3.9 20:22:11 10° N 20:25:24 35° ENE 20:28:05 13° SE
Cosmos 1844 Rocket 2.8 20:19:49 10° NNW 20:25:31 84° WSW 20:30:53 12° SSE
Cosmos 1452 Rocket 3.7 20:21:50 10° SSW 20:27:08 77° WNW 20:32:27 10° NNE
SL-8 R/B 3.9 20:23:54 10° W 20:28:35 53° SSW 20:33:01 11° SE
Cosmos 2100 Rocket 4.1 20:23:11 10° N 20:29:36 84° W 20:35:56 10° S
ARIANE 5 R/B 2.9 20:29:23 10° S 20:33:48 68° WSW 20:38:18 10° NNW
Cosmos 1340 3.3 20:32:11 13° SSE 20:35:14 38° E 20:38:46 10° NNE
NOSS 3-2 (C) 4.1 20:29:37 10° WSW 20:35:20 60° NW 20:42:03 10° NE
H-2A R/B 4.2 20:32:51 10° NNE 20:36:38 35° E 20:39:42 14° SSE
Cosmos 1908 3.5 20:33:19 10° NNW 20:37:11 64° W 20:40:58 10° S
Cosmos 2263 Rocket 4.5 20:34:31 10° WNW 20:38:07 17° W 20:41:42 10° SW
FALCON 9 DEB 3.2 20:35:40 10° SW 20:39:01 53° SSE 20:42:22 10° ENE
ATLAS 3B R/B 3.0 20:33:25 10° S 20:39:27 41° ESE 20:45:39 10° NE
Meteor 2-5 Rocket 4.3 20:36:28 12° SSE 20:41:07 40° E 20:46:19 10° NNE
FALCON 9 DEB 4.2 20:40:01 12° S 20:41:57 20° SE 20:44:16 10° E
Geosat 4.4 20:37:26 12° SSE 20:42:05 57° WSW 20:47:03 10° NW
Cosmos 1544 Rocket 3.7 20:39:51 10° NNW 20:44:21 81° W 20:48:22 13° S
Spot 2 Rocket 4.2 20:40:58 10° S 20:45:52 51° W 20:50:50 10° NNW
Cosmos 2173 Rocket 4.3 20:41:14 10° NNW 20:47:34 68° W 20:53:52 10° S
Cosmos 1455 Rocket 4.0 20:44:51 10° NNW 20:49:07 45° W 20:53:22 10° SSW
ERS-1 Rocket 3.2 20:44:31 11° S 20:49:19 68° WSW 20:54:22 10° NNW
Lacrosse 5 rocket 1.2 20:46:05 10° SSW 20:49:35 44° SE 20:53:02 10° ENE
Cosmos 2016 Rocket 4.0 20:44:37 10° N 20:50:46 89° E 20:56:18 13° S
Cosmos 1331 Rocket 4.0 20:45:40 10° SSW 20:50:54 82° ESE 20:56:14 10° NNE
Cosmos 2333 4.3 20:45:17 10° S 20:50:55 57° ESE 20:56:31 10° NE
FALCON 9 DEB 4.1 20:50:01 17° S 20:51:20 22° SE 20:53:49 10° E
USA 215 3.8 20:54:09 10° ENE 21:00:03 35° SE 21:05:55 10° SSW
BREEZE-M DEB (TANK) 2.3 20:58:47 10° SW 21:01:19 43° SSE 21:06:35 10° ENE
Cosmos 2333 Rocket 2.3 20:56:33 10° S 21:02:10 58° ESE 21:07:47 10° NE
Cosmos 1725 Rocket 4.0 20:56:41 10° N 21:02:54 86° W 21:08:13 15° S
Cosmos 1953 4.0 21:02:42 10° NNW 21:06:15 29° W 21:09:47 10° SSW
Cosmos 1626 2.8 21:04:34 10° SSW 21:08:10 53° WNW 21:11:49 10° N
Cosmos 1302 Rocket 4.1 21:04:49 11° S 21:09:48 63° ESE 21:15:00 10° NNE
Meteor 2-10 Rocket 3.8 21:05:08 10° N 21:10:10 56° ENE 21:13:41 19° SSE
SL-14 R/B 3.4 21:08:37 13° SSW 21:12:13 79° W 21:16:17 10° N
Cosmos 1844 4.3 21:07:03 10° NW 21:12:22 46° WSW 21:16:41 15° S
Cosmos 2219 Rocket 2.3 21:07:40 10° S 21:13:14 60° ESE 21:18:50 10° NE
Cosmos 1867 3.8 21:11:20 10° NW 21:16:51 72° NE 21:21:11 17° SE
Cosmos 1536 Rocket 3.6 21:15:05 14° SSW 21:18:56 83° W 21:23:25 10° N
CENTAUR R/B 4.2 21:13:22 10° W 21:19:23 40° NNW 21:26:30 10° NE
DNEPR-1 R/B 3.9 21:19:57 10° NW 21:24:04 52° SW 21:26:37 22° SSE
Meteor 1-24 Rocket 3.6 21:21:07 17° S 21:25:17 73° E 21:30:47 10° NNE
Cosmos 1025 Rocket 4.3 21:23:48 10° SW 21:27:54 38° WNW 21:32:01 10° N
Cosmos 389 Rocket 2.6 21:25:13 10° N 21:28:36 59° ENE 21:30:14 27° SSE
Cosmos 2237 Rocket 3.3 21:27:21 19° SE 21:29:55 27° ESE 21:34:33 10° NE
Iridium 2 4.5 21:30:31 24° SE 21:32:10 36° E 21:35:38 10° NNE
Cosmos 2228 3.0 21:29:54 10° N 21:34:20 81° E 21:36:56 24° SSE
USA 267 3.4 21:28:48 10° ESE 21:35:19 75° NNE 21:41:53 10° WNW
Cosmos 2360 Rocket 3.3 21:30:25 10° SW 21:35:50 45° NW 21:41:16 10° NNE
SL-16 R/B 4.4 21:31:28 10° W 21:36:13 27° NW 21:41:00 10° NNE
Cosmos 2322 Rocket 4.1 21:33:09 10° WSW 21:38:10 31° NW 21:43:13 10° NNE
Cosmos 1486 Rocket 4.0 21:36:42 10° NNW 21:41:57 83° WSW 21:45:12 24° SSE
Cosmos 1455 2.7 21:40:11 10° N 21:43:56 49° ENE 21:45:44 26° SE
ATLAS CENTAUR R/B 2.6 21:42:18 10° NW 21:46:13 33° WSW 21:48:22 21° SSW
Cosmos 968 Rocket 3.8 21:45:25 10° NNW 21:50:25 55° WSW 21:53:28 23° S
Cosmos 1184 Rocket 3.9 21:49:59 25° ESE 21:50:42 28° E 21:53:32 10° NNE
Cosmos 1300 4.3 21:48:48 10° NNW 21:52:04 27° W 21:54:30 15° SW
Terra 3.5 21:49:22 11° SSW 21:53:04 25° W 21:57:02 10° NW
COSMOS 2428 2.7 21:48:21 10° SSW 21:54:02 86° WNW 21:59:50 10° NNE
Cosmos 1354 Rocket 4.2 21:50:21 10° NNW 21:55:42 69° ENE 21:59:07 23° SE
Cosmos 2322 4.2 21:50:20 10° SW 21:55:55 62° WNW 22:01:34 10° NNE
FALCON 9 DEB 2.9 21:54:51 22° SW 21:56:38 56° SSE 21:59:44 10° ENE
Cosmos 1992 Rocket 4.0 21:54:03 22° S 21:57:28 69° ESE 22:02:41 10° NNE
Uosat 12 SS-18 rocket 4.1 21:54:40 14° SSW 21:58:26 80° SE 22:03:36 10° NE
Cosmos 2278 Rocket 2.2 21:54:48 10° NNW 22:00:30 84° WSW 22:04:01 24° SSE
ATLAS CENTAUR R/B 3.8 21:59:32 23° SSE 22:02:17 35° ESE 22:12:36 10° NE
Cosmos 2058 Rocket 3.2 22:00:37 10° N 22:05:05 68° ENE 22:07:18 28° SSE
Cosmos 1726 Rocket 3.8 22:08:11 10° NNW 22:12:38 65° W 22:14:53 28° S
GENESIS II 4.5 22:11:59 34° S 22:13:14 47° SE 22:17:00 10° NE
Cosmos 1346 Rocket 3.4 22:11:16 21° SW 22:13:45 54° WNW 22:17:43 10° N
GEOS 3 Rocket 4.0 22:11:17 25° S 22:14:11 51° SW 22:19:24 10° NW
FALCON 9 DEB 3.9 22:12:35 10° W 22:15:56 53° NNW 22:19:18 10° ENE
FALCON 9 DEB 2.8 22:14:08 10° WSW 22:17:14 86° NNW 22:20:20 10° ENE
Cosmos 1891 Rocket 4.5 22:11:20 10° N 22:17:31 85° W 22:21:24 25° S
FALCON 9 DEB 2.7 22:18:01 11° WSW 22:21:01 84° SSE 22:24:09 10° ENE
NOSS 0 Rocket 3.9 22:16:43 19° SSW 22:21:21 79° ESE 22:27:38 10° NNE
SL-4 R/B 2.5 22:22:17 33° SE 22:22:17 33° SE 22:25:33 10° E
Cosmos 1513 Rocket 4.4 22:16:44 10° N 22:22:49 81° W 22:26:33 25° S
FALCON 9 DEB 2.9 22:23:34 10° WSW 22:26:41 80° NNW 22:29:48 10° ENE
Lacrosse 5 rocket 2.4 22:25:17 10° W 22:28:43 40° NNW 22:32:08 10° NE
ATLAS 3B R/B 3.2 22:23:28 10° WSW 22:29:57 58° NW 22:36:43 10° NE
SJ 16-02 2.6 22:27:16 10° N 22:31:18 34° ENE 22:34:22 15° ESE
Cosmos 1892 Rocket 3.8 22:29:32 26° SSW 22:31:56 67° WNW 22:36:24 10° N
ALOS 2 2.7 22:32:40 31° S 22:34:41 69° WSW 22:39:05 10° NNW
Meteor 2-1 Rocket 4.2 22:33:40 10° NNW 22:39:09 71° W 22:42:13 27° S
Cosmos 1441 Rocket 3.1 22:38:21 37° S 22:39:47 81° ESE 22:43:39 10° NNE
Cosmos 1980 3.7 22:36:00 21° SSW 22:39:53 89° ESE 22:45:37 10° NNE
Cosmos 1943 Rocket 3.0 22:34:52 10° NNW 22:40:12 47° NE 22:45:00 12° SE
Cosmos 1703 3.2 22:39:40 36° S 22:41:14 89° E 22:45:13 10° N
USA 215 3.3 22:36:58 10° ENE 22:43:32 88° NNW 22:50:06 10° WSW
Cosmos 2333 Rocket 3.9 22:41:40 10° WSW 22:46:47 32° NW 22:51:54 10° NNE
USA 32 4.2 22:43:09 10° N 22:48:24 67° E 22:51:17 27° SSE
SAR-Lupe-2 3.5 22:45:44 10° NNE 22:49:19 74° ESE 22:50:27 41° S
Cosmos 1328 3.7 22:52:30 38° S 22:53:54 78° E 22:57:50 10° NNE
Cosmos 2219 Rocket 3.9 22:52:36 10° WSW 22:57:35 31° NW 23:02:35 10° NNE
Thor Agena Rocket 3.6 22:56:40 10° NNE 23:01:56 68° ESE 23:04:38 29° S
Cosmos 1607 4.4 22:55:55 10° NW 23:01:58 45° WSW 23:05:04 26° S
Cosmos 1626 Rocket 3.5 22:59:58 33° S 23:01:59 89° E 23:06:28 10° N
PSLV R/B 3.9 23:03:49 10° NNE 23:08:02 53° E 23:09:53 31° SSE
Cosmos 1634 Rocket 4.1 23:01:56 10° N 23:08:16 73° ENE 23:12:24 23° SSE
Cosmos 1602 Rocket 3.6 23:06:53 33° S 23:08:53 77° E 23:13:23 10° NNE
SL-16 R/B 2.5 23:06:17 28° S 23:09:10 55° ESE 23:14:42 10° NE
MTI 4.4 23:10:24 10° N 23:13:20 45° WNW 23:14:12 34° WSW
Cosmos 2237 Rocket 2.6 23:09:08 16° SW 23:13:37 59° NW 23:19:12 10° NNE
Meteor 1-4 Rocket 3.0 23:12:31 10° NNW 23:15:53 46° W 23:16:45 37° SW
Cosmos 1758 Rocket 3.9 23:14:18 30° SSE 23:16:17 56° E 23:20:38 10° NNE
Cosmos 1825 4.4 23:15:22 12° ESE 23:17:10 16° E 23:19:35 10° NE
USA 267 3.6 23:14:47 23° SSE 23:18:38 46° SW 23:24:53 10° WNW
Cosmos 1455 4.4 23:16:52 10° NW 23:19:06 15° W 23:20:36 12° WSW
Cosmos 2369 Rocket 2.9 23:17:07 10° NNW 23:22:44 53° NE 23:28:18 10° SE
Lacrosse 4 Rocket 4.3 23:24:29 10° N 23:26:56 15° NNE 23:29:21 10° ENE
OPS 6432 4.1 23:26:17 10° NW 23:29:17 83° SW 23:30:35 34° SE
Cosmos-2242 3.0 23:26:49 10° N 23:31:15 89° E 23:33:23 30° S
FALCON 9 DEB 3.8 23:29:21 10° W 23:32:25 49° N 23:35:29 10° ENE
NOSS 2-3 (C) 4.2 23:31:45 30° SSE 23:33:09 40° ESE 23:37:39 10° NE
Cosmos 1174 4.5 23:35:00 26° SSW 23:38:14 71° SE 23:42:53 10° NE
Cosmos 1408 3.3 23:37:17 29° SSE 23:38:41 44° E 23:42:13 10° NNE
Cosmos 2297 3.9 23:37:57 10° NW 23:43:27 54° WSW 23:46:30 26° S
Cosmos 1812 Rocket 4.2 23:39:23 10° NNW 23:43:29 42° W 23:45:17 27° SW
Cosmos 2278 Rocket 4.1 23:40:37 10° WNW 23:43:42 15° W 23:45:51 12° WSW
Meteor 1-27 4.2 23:41:34 10° NNW 23:47:08 72° W 23:50:25 25° S
Meteor 1-11 4.4 23:44:20 24° SSW 23:47:44 64° WNW 23:53:18 10° N
YAOGAN 11 4.2 23:47:40 23° SSE 23:50:23 76° ENE 23:54:53 10° NNW
FALCON 9 DEB 4.1 23:50:04 10° WNW 23:53:03 43° N 23:56:02 10° ENE
FALCON 9 DEB 4.0 23:49:48 10° WNW 23:53:09 52° N 23:56:29 10° E
FALCON 9 DEB 4.1 23:53:53 10° WNW 23:56:55 43° N 23:59:55 10° ENE
